| time (UTC) | temp F | wind direction | speed knots | gust knots | rain 1hr in | rain 24hr in | rain mn in | humidity % | barometer mb |
| 20260510162513 | 79 | 0 | 0.0 | 2.6 | 0.00 | 0.00 | 0.00 | 48 | 1015.2 |
| 20260510162011 | 79 | 0 | 0.0 | 2.6 | 0.00 | 0.00 | 0.00 | 47 | 1015.2 |
| 20260510161528 | 78 | 0 | 0.0 | 3.5 | 0.00 | 0.00 | 0.00 | 47 | 1015.1 |
| 20260510161014 | 78 | 0 | 0.0 | 4.3 | 0.00 | 0.00 | 0.00 | 47 | 1015.2 |
| 20260510160512 | 78 | 334 | 1.7 | 4.3 | 0.00 | 0.00 | 0.00 | 44 | 1015.3 |
| 20260510160034 | 78 | 342 | 0.9 | 4.3 | 0.00 | 0.00 | 0.00 | 46 | 1015.5 |
| 20260510155512 | 77 | 0 | 0.0 | 3.5 | 0.00 | 0.00 | 0.00 | 52 | 1015.5 |
| 20260510155013 | 77 | 5 | 0.9 | 3.5 | 0.00 | 0.00 | 0.00 | 49 | 1015.6 |
| 20260510154531 | 76 | 0 | 0.9 | 3.5 | 0.00 | 0.00 | 0.00 | 50 | 1015.8 |
| 20260510154010 | 76 | 315 | 0.0 | 3.5 | 0.00 | 0.00 | 0.00 | 54 | 1015.7 |
| 20260510153509 | 75 | 340 | 0.9 | 3.5 | 0.00 | 0.00 | 0.00 | 56 | 1015.6 |
| 20260510153037 | 76 | 0 | 0.0 | 2.6 | 0.00 | 0.00 | 0.00 | 57 | 1015.7 |
| 20260510152512 | 75 | 248 | 0.9 | 4.3 | 0.00 | 0.00 | 0.00 | 55 | 1015.7 |
| 20260510152010 | 75 | 0 | 0.9 | 4.3 | 0.00 | 0.00 | 0.00 | 58 | 1015.5 |
| 20260510151528 | 75 | 171 | 0.0 | 3.5 | 0.00 | 0.00 | 0.00 | 57 | 1015.6 |
| 20260510151012 | 75 | 340 | 0.9 | 4.3 | 0.00 | 0.00 | 0.00 | 58 | 1015.4 |
| 20260510150509 | 74 | 336 | 0.9 | 4.3 | 0.00 | 0.00 | 0.00 | 58 | 1015.6 |
| 20260510150029 | 74 | 0 | 0.9 | 3.5 | 0.00 | 0.00 | 0.00 | 62 | 1015.3 |
| 20260510145511 | 74 | 325 | 0.9 | 3.5 | 0.00 | 0.00 | 0.00 | 62 | 1015.5 |
| 20260510145012 | 73 | 0 | 0.0 | 2.6 | 0.00 | 0.00 | 0.00 | 61 | 1015.6 |
| 20260510144530 | 73 | 0 | 0.0 | 3.5 | 0.00 | 0.00 | 0.00 | 63 | 1015.6 |
| 20260510144011 | 72 | 0 | 0.0 | 3.5 | 0.00 | 0.00 | 0.00 | 64 | 1015.4 |
| 20260510143511 | 72 | 310 | 0.9 | 1.7 | 0.00 | 0.00 | 0.00 | 67 | 1015.4 |
| 20260510143033 | 72 | 0 | 0.0 | 2.6 | 0.00 | 0.00 | 0.00 | 68 | 1015.5 |
| 20260510142511 | 71 | 0 | 0.9 | 2.6 | 0.00 | 0.00 | 0.00 | 67 | 1015.4 |
| 20260510142012 | 71 | 0 | 0.0 | 2.6 | 0.00 | 0.00 | 0.00 | 69 | 1015.4 |
| 20260510141532 | 71 | 0 | 0.0 | 1.7 | 0.00 | 0.00 | 0.00 | 69 | 1015.5 |
| 20260510141011 | 71 | 270 | 0.0 | 3.5 | 0.00 | 0.00 | 0.00 | 70 | 1015.4 |
| 20260510140509 | 71 | 0 | 0.0 | 3.5 | 0.00 | 0.00 | 0.00 | 70 | 1015.5 |
| 20260510140030 | 70 | 298 | 0.0 | 5.2 | 0.00 | 0.00 | 0.00 | 71 | 1015.5 |
| 20260510135511 | 70 | 347 | 0.0 | 5.2 | 0.00 | 0.00 | 0.00 | 73 | 1015.6 |
| 20260510135011 | 69 | 5 | 1.7 | 5.2 | 0.00 | 0.00 | 0.00 | 74 | 1015.6 |
| 20260510134529 | 69 | 355 | 0.9 | 4.3 | 0.00 | 0.00 | 0.00 | 76 | 1015.5 |
| 20260510134012 | 69 | 339 | 1.7 | 5.2 | 0.00 | 0.00 | 0.00 | 77 | 1015.4 |
| 20260510133511 | 68 | 22 | 0.9 | 5.2 | 0.00 | 0.00 | 0.00 | 78 | 1015.4 |
| 20260510133038 | 68 | 0 | 0.9 | 5.2 | 0.00 | 0.00 | 0.00 | 80 | 1015.4 |
| 20260510132515 | 67 | 333 | 0.9 | 5.2 | 0.00 | 0.00 | 0.00 | 83 | 1015.5 |
| 20260510132011 | 67 | 0 | 0.9 | 3.5 | 0.00 | 0.00 | 0.00 | 84 | 1015.5 |
| 20260510131530 | 66 | 338 | 0.0 | 3.5 | 0.00 | 0.00 | 0.00 | 87 | 1015.4 |
| 20260510131015 | 65 | 336 | 0.9 | 3.5 | 0.00 | 0.00 | 0.00 | 89 | 1015.3 |
| 20260510130512 | 65 | 355 | 0.9 | 2.6 | 0.00 | 0.00 | 0.00 | 91 | 1015.2 |
| 20260510130027 | 64 | 0 | 0.9 | 1.7 | 0.00 | 0.00 | 0.00 | 93 | 1015.1 |
| 20260510125509 | 63 | 0 | 0.0 | 1.7 | 0.00 | 0.00 | 0.00 | 94 | 1015.1 |
| 20260510125013 | 63 | 0 | 0.0 | 3.5 | 0.00 | 0.00 | 0.00 | 95 | 1015.0 |
| 20260510124530 | 63 | 0 | 0.0 | 3.5 | 0.00 | 0.00 | 0.00 | 95 | 1015.0 |
| 20260510124016 | 63 | 338 | 0.9 | 3.5 | 0.00 | 0.00 | 0.00 | 96 | 1015.0 |
| 20260510123512 | 62 | 336 | 0.0 | 2.6 | 0.00 | 0.00 | 0.00 | 96 | 1015.0 |
| 20260510123032 | 62 | 0 | 0.0 | 1.7 | 0.00 | 0.00 | 0.00 | 96 | 1014.9 |
| 20260510122514 | 62 | 0 | 0.0 | 1.7 | 0.00 | 0.00 | 0.00 | 96 | 1014.9 |
| 20260510122010 | 62 | 0 | 0.0 | 1.7 | 0.00 | 0.00 | 0.00 | 97 | 1014.9 |
| 20260510121531 | 61 | 0 | 0.0 | 1.7 | 0.00 | 0.00 | 0.00 | 96 | 1014.9 |
| 20260510121011 | 61 | 0 | 0.0 | 1.7 | 0.00 | 0.00 | 0.00 | 96 | 1014.8 |
| 20260510120512 | 61 | 0 | 0.0 | 1.7 | 0.00 | 0.00 | 0.00 | 97 | 1014.7 |
| 20260510120031 | 61 | 0 | 0.0 | 1.7 | 0.00 | 0.00 | 0.00 | 97 | 1014.7 |
| 20260510115512 | 61 | 0 | 0.0 | 0.0 | 0.00 | 0.00 | 0.00 | 97 | 1014.7 |
| 20260510115010 | 61 | 0 | 0.0 | 0.0 | 0.00 | 0.00 | 0.00 | 97 | 1014.7 |
| 20260510114531 | 61 | 0 | 0.0 | 0.0 | 0.00 | 0.00 | 0.00 | 97 | 1014.6 |
| 20260510114013 | 60 | 0 | 0.0 | 0.0 | 0.00 | 0.00 | 0.00 | 97 | 1014.4 |
| 20260510113512 | 60 | 0 | 0.0 | 0.0 | 0.00 | 0.00 | 0.00 | 97 | 1014.5 |
| 20260510113040 | 60 | 0 | 0.0 | 0.0 | 0.00 | 0.00 | 0.00 | 96 | 1014.3 |
| 20260510112512 | 60 | 0 | 0.0 | 0.0 | 0.00 | 0.00 | 0.00 | 96 | 1014.5 |
| 20260510112012 | 60 | 0 | 0.0 | 0.0 | 0.00 | 0.00 | 0.00 | 96 | 1014.3 |
| 20260510111530 | 59 | 0 | 0.0 | 0.0 | 0.00 | 0.00 | 0.00 | 96 | 1014.3 |
| 20260510111012 | 59 | 0 | 0.0 | 0.9 | 0.00 | 0.00 | 0.00 | 96 | 1014.1 |
| 20260510110511 | 59 | 0 | 0.0 | 0.9 | 0.00 | 0.00 | 0.00 | 96 | 1013.9 |
| 20260510110029 | 59 | 0 | 0.0 | 0.0 | 0.00 | 0.00 | 0.00 | 96 | 1013.9 |
| 20260510105513 | 59 | 0 | 0.0 | 0.9 | 0.00 | 0.00 | 0.00 | 96 | 1014.1 |
| 20260510105015 | 59 | 0 | 0.0 | 0.9 | 0.00 | 0.00 | 0.00 | 96 | 1013.9 |
| 20260510104531 | 59 | 0 | 0.0 | 0.0 | 0.00 | 0.00 | 0.00 | 96 | 1013.9 |
| 20260510104013 | 59 | 0 | 0.0 | 0.0 | 0.00 | 0.00 | 0.00 | 96 | 1013.8 |
| 20260510103512 | 59 | 0 | 0.0 | 0.0 | 0.00 | 0.00 | 0.00 | 96 | 1013.5 |
| 20260510103027 | 59 | 0 | 0.0 | 0.0 | 0.00 | 0.00 | 0.00 | 96 | 1013.4 |
| 20260510102509 | 59 | 0 | 0.0 | 0.0 | 0.00 | 0.00 | 0.00 | 96 | 1013.2 |
| 20260510102012 | 59 | 0 | 0.0 | 0.0 | 0.00 | 0.00 | 0.00 | 96 | 1013.0 |
| 20260510101528 | 59 | 0 | 0.0 | 0.0 | 0.00 | 0.00 | 0.00 | 96 | 1013.1 |
| 20260510101013 | 59 | 0 | 0.0 | 0.0 | 0.00 | 0.00 | 0.00 | 96 | 1013.0 |
| 20260510100512 | 59 | 0 | 0.0 | 0.0 | 0.00 | 0.00 | 0.00 | 96 | 1013.0 |
| 20260510100030 | 60 | 0 | 0.0 | 0.0 | 0.00 | 0.00 | 0.00 | 96 | 1012.9 |
| 20260510095513 | 60 | 0 | 0.0 | 0.0 | 0.00 | 0.00 | 0.00 | 96 | 1012.9 |
| 20260510095010 | 60 | 0 | 0.0 | 0.0 | 0.00 | 0.00 | 0.00 | 96 | 1012.6 |
| 20260510094529 | 60 | 0 | 0.0 | 0.0 | 0.00 | 0.00 | 0.00 | 96 | 1012.6 |
| 20260510094010 | 60 | 0 | 0.0 | 0.0 | 0.00 | 0.00 | 0.00 | 96 | 1012.5 |
| 20260510093509 | 60 | 0 | 0.0 | 0.0 | 0.00 | 0.00 | 0.00 | 96 | 1012.6 |
| 20260510093027 | 60 | 0 | 0.0 | 0.0 | 0.00 | 0.00 | 0.00 | 96 | 1012.5 |
| 20260510092514 | 60 | 0 | 0.0 | 0.0 | 0.00 | 0.00 | 0.00 | 96 | 1012.6 |
| 20260510092015 | 60 | 0 | 0.0 | 0.0 | 0.00 | 0.00 | 0.00 | 96 | 1012.5 |
| 20260510091527 | 60 | 0 | 0.0 | 0.0 | 0.00 | 0.00 | 0.00 | 96 | 1012.4 |
| 20260510091009 | 60 | 0 | 0.0 | 0.0 | 0.00 | 0.00 | 0.00 | 95 | 1012.5 |
| 20260510090517 | 60 | 0 | 0.0 | 0.0 | 0.00 | 0.00 | 0.00 | 95 | 1012.4 |
| 20260510090029 | 60 | 0 | 0.0 | 0.0 | 0.00 | 0.00 | 0.00 | 95 | 1012.4 |
| 20260510085512 | 60 | 0 | 0.0 | 0.0 | 0.00 | 0.00 | 0.00 | 95 | 1012.3 |
| 20260510085011 | 60 | 0 | 0.0 | 0.0 | 0.00 | 0.00 | 0.00 | 95 | 1012.3 |
| 20260510084528 | 60 | 0 | 0.0 | 0.0 | 0.00 | 0.00 | 0.00 | 95 | 1012.1 |
| 20260510084014 | 60 | 0 | 0.0 | 0.0 | 0.00 | 0.00 | 0.00 | 95 | 1012.3 |
| 20260510083511 | 60 | 0 | 0.0 | 0.0 | 0.00 | 0.00 | 0.00 | 95 | 1012.1 |
| 20260510083029 | 60 | 0 | 0.0 | 0.0 | 0.00 | 0.00 | 0.00 | 95 | 1012.2 |
| 20260510082513 | 60 | 0 | 0.0 | 0.0 | 0.00 | 0.00 | 0.00 | 95 | 1012.2 |
| 20260510082013 | 60 | 0 | 0.0 | 0.0 | 0.00 | 0.00 | 0.00 | 95 | 1012.1 |
| 20260510081532 | 60 | 0 | 0.0 | 0.0 | 0.00 | 0.00 | 0.00 | 95 | 1012.2 |
| 20260510081009 | 60 | 0 | 0.0 | 0.0 | 0.00 | 0.00 | 0.00 | 95 | 1012.0 |
| 20260510080511 | 60 | 0 | 0.0 | 0.0 | 0.00 | 0.00 | 0.00 | 95 | 1012.0 |
| 20260510080027 | 60 | 0 | 0.0 | 0.0 | 0.00 | 0.00 | 0.00 | 95 | 1012.1 |
| 20260510075510 | 60 | 0 | 0.0 | 0.0 | 0.00 | 0.00 | 0.00 | 95 | 1011.9 |
| 20260510075012 | 60 | 0 | 0.0 | 0.0 | 0.00 | 0.00 | 0.00 | 95 | 1011.8 |
| 20260510074533 | 61 | 0 | 0.0 | 0.0 | 0.00 | 0.00 | 0.00 | 95 | 1011.9 |
| 20260510074016 | 61 | 0 | 0.0 | 0.0 | 0.00 | 0.00 | 0.00 | 95 | 1012.1 |
| 20260510073511 | 61 | 0 | 0.0 | 0.0 | 0.00 | 0.00 | 0.00 | 95 | 1011.8 |
| 20260510073033 | 61 | 0 | 0.0 | 0.0 | 0.00 | 0.00 | 0.00 | 95 | 1011.8 |
| 20260510072510 | 61 | 0 | 0.0 | 0.0 | 0.00 | 0.00 | 0.00 | 95 | 1011.9 |
| 20260510072013 | 61 | 0 | 0.0 | 0.0 | 0.00 | 0.00 | 0.00 | 95 | 1011.8 |
| 20260510071528 | 61 | 0 | 0.0 | 0.9 | 0.00 | 0.00 | 0.00 | 95 | 1012.0 |
| 20260510071011 | 61 | 0 | 0.0 | 0.9 | 0.00 | 0.00 | 0.00 | 94 | 1012.0 |
| 20260510070511 | 61 | 0 | 0.0 | 1.7 | 0.00 | 0.00 | 0.00 | 94 | 1011.9 |
| 20260510070030 | 61 | 0 | 0.0 | 1.7 | 0.00 | 0.00 | 0.00 | 94 | 1012.0 |
| 20260510065511 | 61 | 0 | 0.0 | 0.0 | 0.00 | 0.00 | 0.00 | 94 | 1011.9 |
| 20260510065012 | 61 | 0 | 0.0 | 0.0 | 0.00 | 0.00 | 0.00 | 94 | 1012.0 |
| 20260510064540 | 61 | 0 | 0.0 | 0.0 | 0.00 | 0.00 | 0.00 | 94 | 1012.1 |
| 20260510064010 | 61 | 0 | 0.0 | 0.0 | 0.00 | 0.00 | 0.00 | 94 | 1012.0 |
| 20260510063512 | 61 | 0 | 0.0 | 0.0 | 0.00 | 0.00 | 0.00 | 94 | 1011.7 |
| 20260510063036 | 61 | 0 | 0.0 | 0.0 | 0.00 | 0.00 | 0.00 | 94 | 1011.7 |
| 20260510062511 | 61 | 0 | 0.0 | 0.0 | 0.00 | 0.00 | 0.00 | 94 | 1011.6 |
| 20260510062010 | 61 | 0 | 0.0 | 0.0 | 0.00 | 0.00 | 0.00 | 94 | 1011.6 |
| 20260510061530 | 61 | 0 | 0.0 | 0.0 | 0.00 | 0.00 | 0.00 | 94 | 1011.8 |
| 20260510061011 | 61 | 0 | 0.0 | 0.0 | 0.00 | 0.00 | 0.00 | 93 | 1012.0 |
| 20260510060511 | 61 | 0 | 0.0 | 0.0 | 0.00 | 0.00 | 0.00 | 93 | 1011.9 |
| 20260510060028 | 61 | 0 | 0.0 | 0.0 | 0.00 | 0.00 | 0.00 | 93 | 1012.0 |
| 20260510055509 | 61 | 0 | 0.0 | 0.0 | 0.00 | 0.00 | 0.00 | 93 | 1012.0 |
| 20260510055010 | 61 | 0 | 0.0 | 0.0 | 0.00 | 0.00 | 0.00 | 93 | 1012.0 |
| 20260510054528 | 62 | 0 | 0.0 | 0.0 | 0.00 | 0.00 | 0.00 | 93 | 1012.1 |
| 20260510054011 | 62 | 0 | 0.0 | 0.0 | 0.00 | 0.00 | 0.00 | 93 | 1012.1 |
| 20260510053514 | 62 | 0 | 0.0 | 0.0 | 0.00 | 0.00 | 0.00 | 93 | 1012.1 |
| 20260510053027 | 62 | 0 | 0.0 | 0.0 | 0.00 | 0.00 | 0.00 | 93 | 1012.1 |
| 20260510052512 | 62 | 0 | 0.0 | 0.0 | 0.00 | 0.00 | 0.00 | 92 | 1012.3 |
| 20260510052012 | 62 | 0 | 0.0 | 0.0 | 0.00 | 0.00 | 0.00 | 93 | 1012.2 |
| 20260510051531 | 62 | 0 | 0.0 | 0.0 | 0.00 | 0.00 | 0.00 | 93 | 1012.3 |
| 20260510051010 | 62 | 0 | 0.0 | 0.0 | 0.00 | 0.00 | 0.00 | 93 | 1012.3 |
| 20260510050512 | 62 | 0 | 0.0 | 0.0 | 0.00 | 0.00 | 0.00 | 92 | 1012.3 |
| 20260510050029 | 62 | 0 | 0.0 | 0.0 | 0.00 | 0.00 | 0.00 | 93 | 1012.3 |
| 20260510045511 | 62 | 0 | 0.0 | 0.0 | 0.00 | 0.00 | 0.00 | 93 | 1012.4 |
| 20260510045012 | 62 | 0 | 0.0 | 0.0 | 0.00 | 0.00 | 0.00 | 92 | 1012.5 |
| 20260510044535 | 62 | 0 | 0.0 | 0.0 | 0.00 | 0.00 | 0.00 | 92 | 1012.5 |
| 20260510044011 | 62 | 0 | 0.0 | 0.0 | 0.00 | 0.00 | 0.00 | 92 | 1012.3 |
| 20260510043513 | 62 | 0 | 0.0 | 0.0 | 0.00 | 0.00 | 0.00 | 92 | 1012.4 |
| 20260510043030 | 62 | 0 | 0.0 | 0.0 | 0.00 | 0.00 | 0.00 | 92 | 1012.3 |
| 20260510042512 | 62 | 0 | 0.0 | 0.0 | 0.00 | 0.00 | 0.00 | 92 | 1012.3 |
| 20260510042009 | 62 | 0 | 0.0 | 0.0 | 0.00 | 0.00 | 0.00 | 91 | 1012.4 |
| 20260510041530 | 62 | 0 | 0.0 | 0.0 | 0.00 | 0.00 | 0.00 | 91 | 1012.4 |
| 20260510041012 | 62 | 0 | 0.0 | 0.0 | 0.00 | 0.00 | 0.00 | 91 | 1012.3 |
| 20260510040512 | 63 | 0 | 0.0 | 0.0 | 0.00 | 0.00 | 0.00 | 91 | 1012.2 |
| 20260510040031 | 63 | 0 | 0.0 | 0.0 | 0.00 | 0.00 | 0.00 | 91 | 1012.2 |
| 20260510035509 | 63 | 0 | 0.0 | 0.0 | 0.00 | 0.00 | 0.00 | 91 | 1012.2 |
| 20260510035013 | 63 | 0 | 0.0 | 0.9 | 0.00 | 0.00 | 0.00 | 90 | 1012.2 |
| 20260510034535 | 63 | 0 | 0.0 | 0.9 | 0.00 | 0.00 | 0.00 | 91 | 1012.3 |
| 20260510034013 | 63 | 0 | 0.0 | 0.9 | 0.00 | 0.00 | 0.00 | 91 | 1012.1 |
| 20260510033512 | 63 | 0 | 0.0 | 0.0 | 0.00 | 0.00 | 0.00 | 91 | 1012.2 |
| 20260510033028 | 63 | 0 | 0.0 | 0.0 | 0.00 | 0.00 | 0.00 | 91 | 1012.2 |
| 20260510032511 | 63 | 0 | 0.0 | 0.0 | 0.00 | 0.00 | 0.00 | 90 | 1012.1 |
| 20260510032010 | 63 | 0 | 0.0 | 0.0 | 0.00 | 0.00 | 0.00 | 90 | 1012.0 |
| 20260510031532 | 63 | 0 | 0.0 | 0.0 | 0.00 | 0.00 | 0.00 | 90 | 1012.0 |
| 20260510031012 | 63 | 0 | 0.0 | 0.0 | 0.00 | 0.00 | 0.00 | 90 | 1011.9 |
| 20260510030514 | 63 | 0 | 0.0 | 0.0 | 0.00 | 0.00 | 0.00 | 90 | 1012.0 |
| 20260510030029 | 63 | 0 | 0.0 | 0.0 | 0.00 | 0.00 | 0.00 | 90 | 1011.8 |
| 20260510025512 | 63 | 0 | 0.0 | 0.0 | 0.00 | 0.00 | 0.00 | 89 | 1011.8 |
| 20260510025013 | 64 | 0 | 0.0 | 0.0 | 0.00 | 0.00 | 0.00 | 89 | 1012.0 |
| 20260510024530 | 64 | 0 | 0.0 | 0.0 | 0.00 | 0.00 | 0.00 | 89 | 1012.0 |
| 20260510024013 | 64 | 0 | 0.0 | 0.0 | 0.00 | 0.00 | 0.00 | 89 | 1012.0 |
| 20260510023510 | 64 | 0 | 0.0 | 0.0 | 0.00 | 0.00 | 0.00 | 89 | 1011.9 |
| 20260510023032 | 64 | 0 | 0.0 | 0.0 | 0.00 | 0.00 | 0.00 | 88 | 1011.9 |
| 20260510022512 | 64 | 0 | 0.0 | 0.0 | 0.00 | 0.00 | 0.00 | 88 | 1011.8 |
| 20260510022012 | 64 | 0 | 0.0 | 0.0 | 0.00 | 0.00 | 0.00 | 88 | 1011.9 |
| 20260510021536 | 64 | 0 | 0.0 | 0.0 | 0.00 | 0.00 | 0.00 | 87 | 1011.9 |
| 20260510021015 | 65 | 0 | 0.0 | 0.0 | 0.00 | 0.00 | 0.00 | 87 | 1011.8 |
| 20260510020512 | 65 | 0 | 0.0 | 0.0 | 0.00 | 0.00 | 0.00 | 87 | 1011.8 |
| 20260510020027 | 65 | 0 | 0.0 | 0.0 | 0.00 | 0.00 | 0.00 | 87 | 1011.7 |
| 20260510015510 | 65 | 0 | 0.0 | 0.0 | 0.00 | 0.00 | 0.00 | 87 | 1011.8 |
| 20260510015015 | 65 | 0 | 0.0 | 0.0 | 0.00 | 0.00 | 0.00 | 87 | 1011.8 |
| 20260510014532 | 65 | 0 | 0.0 | 0.0 | 0.00 | 0.00 | 0.00 | 86 | 1011.6 |
| 20260510014012 | 65 | 0 | 0.0 | 0.0 | 0.00 | 0.00 | 0.00 | 86 | 1011.5 |
| 20260510013512 | 65 | 0 | 0.0 | 0.0 | 0.00 | 0.00 | 0.00 | 86 | 1011.3 |
| 20260510013031 | 65 | 0 | 0.0 | 0.0 | 0.00 | 0.00 | 0.00 | 85 | 1011.3 |
| 20260510012514 | 66 | 0 | 0.0 | 0.0 | 0.00 | 0.00 | 0.00 | 85 | 1011.1 |
| 20260510012009 | 66 | 0 | 0.0 | 0.0 | 0.00 | 0.00 | 0.00 | 85 | 1011.2 |
| 20260510011531 | 66 | 0 | 0.0 | 0.0 | 0.00 | 0.00 | 0.00 | 84 | 1011.1 |
| 20260510011010 | 66 | 0 | 0.0 | 0.0 | 0.00 | 0.00 | 0.00 | 83 | 1011.1 |
| 20260510010512 | 67 | 0 | 0.0 | 0.0 | 0.00 | 0.00 | 0.00 | 83 | 1011.0 |
| 20260510010030 | 67 | 0 | 0.0 | 0.0 | 0.00 | 0.00 | 0.00 | 82 | 1011.0 |
| 20260510005513 | 67 | 0 | 0.0 | 0.0 | 0.00 | 0.00 | 0.00 | 82 | 1011.0 |
| 20260510005013 | 67 | 0 | 0.0 | 0.0 | 0.00 | 0.00 | 0.00 | 81 | 1011.1 |
| 20260510004530 | 68 | 0 | 0.0 | 0.0 | 0.00 | 0.00 | 0.00 | 80 | 1011.0 |
| 20260510004014 | 68 | 0 | 0.0 | 0.0 | 0.00 | 0.00 | 0.00 | 79 | 1010.9 |
| 20260510003510 | 69 | 0 | 0.0 | 0.0 | 0.00 | 0.00 | 0.00 | 79 | 1010.9 |
| 20260510003028 | 69 | 0 | 0.0 | 0.9 | 0.00 | 0.00 | 0.00 | 78 | 1011.1 |
| 20260510002511 | 69 | 0 | 0.0 | 0.9 | 0.00 | 0.00 | 0.00 | 78 | 1011.0 |
| 20260510002010 | 69 | 0 | 0.0 | 0.0 | 0.00 | 0.00 | 0.00 | 77 | 1011.1 |
| 20260510001530 | 70 | 0 | 0.0 | 0.9 | 0.00 | 0.00 | 0.00 | 77 | 1011.0 |
| 20260510001010 | 70 | 0 | 0.0 | 1.7 | 0.00 | 0.00 | 0.00 | 77 | 1010.9 |
| 20260510000510 | 70 | 0 | 0.0 | 1.7 | 0.00 | 0.00 | 0.00 | 76 | 1010.8 |
| 20260510000030 | 70 | 191 | 0.0 | 1.7 | 0.00 | 0.00 | 0.00 | 76 | 1010.7 |
| 20260509235512 | 70 | 0 | 0.0 | 2.6 | 0.00 | 0.00 | 0.00 | 76 | 1010.8 |
| 20260509235012 | 70 | 0 | 0.0 | 2.6 | 0.00 | 0.00 | 0.00 | 75 | 1010.7 |
| 20260509234533 | 71 | 227 | 0.0 | 2.6 | 0.00 | 0.00 | 0.00 | 75 | 1010.5 |
| 20260509234010 | 71 | 0 | 0.0 | 2.6 | 0.00 | 0.00 | 0.00 | 75 | 1010.4 |
| 20260509233510 | 71 | 0 | 0.0 | 2.6 | 0.00 | 0.00 | 0.00 | 74 | 1010.4 |
| 20260509233030 | 71 | 263 | 0.0 | 3.5 | 0.00 | 0.00 | 0.00 | 74 | 1010.4 |
| 20260509232510 | 71 | 191 | 0.0 | 3.5 | 0.00 | 0.00 | 0.00 | 73 | 1010.4 |
| 20260509232010 | 71 | 0 | 0.0 | 3.5 | 0.00 | 0.00 | 0.00 | 73 | 1010.3 |
| 20260509231530 | 72 | 186 | 0.0 | 3.5 | 0.00 | 0.00 | 0.00 | 72 | 1010.4 |
| 20260509231009 | 72 | 0 | 0.0 | 1.7 | 0.00 | 0.00 | 0.00 | 72 | 1010.4 |
| 20260509230511 | 72 | 0 | 0.0 | 2.6 | 0.00 | 0.00 | 0.00 | 72 | 1010.3 |
| 20260509230030 | 72 | 0 | 0.0 | 3.5 | 0.00 | 0.00 | 0.00 | 72 | 1010.3 |
| 20260509225510 | 72 | 281 | 0.9 | 3.5 | 0.00 | 0.00 | 0.00 | 71 | 1010.1 |
| 20260509225012 | 72 | 0 | 0.0 | 2.6 | 0.00 | 0.00 | 0.00 | 71 | 1009.9 |
| 20260509224532 | 72 | 204 | 0.9 | 3.5 | 0.00 | 0.00 | 0.00 | 71 | 1010.2 |
| 20260509224010 | 73 | 0 | 0.0 | 4.3 | 0.00 | 0.00 | 0.00 | 71 | 1010.3 |
| 20260509223509 | 72 | 0 | 0.9 | 4.3 | 0.00 | 0.00 | 0.00 | 71 | 1010.5 |
| 20260509223031 | 72 | 0 | 0.0 | 3.5 | 0.00 | 0.00 | 0.00 | 70 | 1010.2 |
| 20260509222510 | 72 | 63 | 0.9 | 3.5 | 0.00 | 0.00 | 0.00 | 71 | 1010.2 |
| 20260509222010 | 72 | 208 | 0.9 | 3.5 | 0.00 | 0.00 | 0.00 | 72 | 1010.4 |
| 20260509221531 | 72 | 0 | 0.0 | 3.5 | 0.00 | 0.00 | 0.00 | 71 | 1010.4 |
| 20260509221010 | 72 | 208 | 0.9 | 2.6 | 0.00 | 0.00 | 0.00 | 71 | 1010.3 |
| 20260509220513 | 72 | 0 | 0.0 | 2.6 | 0.00 | 0.00 | 0.00 | 71 | 1010.4 |
| 20260509220027 | 72 | 261 | 0.9 | 2.6 | 0.00 | 0.00 | 0.00 | 70 | 1010.4 |
| 20260509215513 | 72 | 0 | 0.0 | 2.6 | 0.00 | 0.00 | 0.00 | 70 | 1010.3 |
| 20260509215012 | 72 | 0 | 0.0 | 3.5 | 0.00 | 0.00 | 0.00 | 71 | 1010.2 |
| 20260509214527 | 72 | 282 | 0.9 | 4.3 | 0.00 | 0.00 | 0.00 | 70 | 1010.1 |
| 20260509214011 | 72 | 262 | 0.9 | 4.3 | 0.00 | 0.00 | 0.00 | 69 | 1010.2 |
| 20260509213511 | 73 | 128 | 0.9 | 5.2 | 0.00 | 0.00 | 0.00 | 69 | 1010.1 |
| 20260509213030 | 73 | 172 | 0.0 | 5.2 | 0.00 | 0.00 | 0.00 | 70 | 1010.0 |
| 20260509212512 | 73 | 143 | 0.9 | 5.2 | 0.00 | 0.00 | 0.00 | 69 | 1010.0 |
| 20260509212014 | 73 | 279 | 0.9 | 5.2 | 0.00 | 0.00 | 0.00 | 67 | 1009.9 |
| 20260509211529 | 73 | 107 | 0.9 | 5.2 | 0.00 | 0.00 | 0.00 | 68 | 1009.9 |
| 20260509211009 | 73 | 169 | 0.9 | 5.2 | 0.00 | 0.00 | 0.00 | 69 | 1009.9 |
| 20260509210510 | 72 | 141 | 0.9 | 5.2 | 0.00 | 0.00 | 0.00 | 69 | 1009.9 |
| 20260509210032 | 72 | 242 | 0.9 | 6.1 | 0.00 | 0.00 | 0.00 | 70 | 1010.0 |
| 20260509205509 | 72 | 269 | 0.9 | 6.1 | 0.00 | 0.00 | 0.00 | 70 | 1010.2 |
| 20260509205010 | 72 | 274 | 0.9 | 6.1 | 0.00 | 0.00 | 0.00 | 69 | 1010.2 |
| 20260509204530 | 71 | 275 | 0.9 | 4.3 | 0.00 | 0.00 | 0.00 | 70 | 1010.2 |
| 20260509204010 | 71 | 156 | 0.0 | 5.2 | 0.00 | 0.00 | 0.00 | 70 | 1009.9 |
| 20260509203511 | 72 | 269 | 1.7 | 5.2 | 0.00 | 0.00 | 0.00 | 69 | 1010.2 |
| 20260509203030 | 72 | 294 | 0.9 | 4.3 | 0.00 | 0.00 | 0.00 | 69 | 1010.0 |
| 20260509202511 | 72 | 251 | 0.9 | 4.3 | 0.00 | 0.00 | 0.00 | 68 | 1010.0 |
| 20260509202021 | 72 | 174 | 0.9 | 2.6 | 0.00 | 0.00 | 0.00 | 68 | 1010.0 |
| 20260509201529 | 72 | 0 | 0.9 | 4.3 | 0.00 | 0.00 | 0.00 | 69 | 1010.2 |
| 20260509201013 | 72 | 111 | 0.9 | 4.3 | 0.00 | 0.00 | 0.00 | 69 | 1010.0 |
| 20260509200510 | 71 | 220 | 0.9 | 5.2 | 0.00 | 0.00 | 0.00 | 68 | 1010.3 |
| 20260509200031 | 72 | 247 | 1.7 | 5.2 | 0.00 | 0.00 | 0.00 | 68 | 1010.4 |
| 20260509195516 | 72 | 275 | 0.0 | 4.3 | 0.00 | 0.00 | 0.00 | 68 | 1010.4 |
| 20260509195012 | 72 | 0 | 0.9 | 7.0 | 0.00 | 0.00 | 0.00 | 67 | 1010.4 |
| 20260509194528 | 72 | 277 | 1.7 | 7.0 | 0.00 | 0.00 | 0.00 | 66 | 1010.5 |
| 20260509194014 | 72 | 246 | 0.9 | 7.0 | 0.00 | 0.00 | 0.00 | 65 | 1010.6 |
| 20260509193511 | 72 | 273 | 0.9 | 5.2 | 0.00 | 0.00 | 0.00 | 64 | 1010.5 |
| 20260509193028 | 72 | 259 | 1.7 | 5.2 | 0.00 | 0.00 | 0.00 | 64 | 1010.6 |
| 20260509192511 | 72 | 155 | 1.7 | 5.2 | 0.00 | 0.00 | 0.00 | 63 | 1010.6 |
| 20260509192011 | 73 | 160 | 0.9 | 5.2 | 0.00 | 0.00 | 0.00 | 62 | 1010.6 |
| 20260509191528 | 73 | 132 | 0.9 | 6.1 | 0.00 | 0.00 | 0.00 | 62 | 1010.5 |
| 20260509191011 | 74 | 169 | 0.9 | 6.1 | 0.00 | 0.00 | 0.00 | 61 | 1010.7 |
| 20260509190512 | 75 | 260 | 0.9 | 6.1 | 0.00 | 0.00 | 0.00 | 61 | 1010.7 |
| 20260509190029 | 76 | 238 | 1.7 | 6.1 | 0.00 | 0.00 | 0.00 | 58 | 1010.7 |
| 20260509185510 | 76 | 286 | 0.9 | 7.0 | 0.00 | 0.00 | 0.00 | 59 | 1010.6 |
| 20260509185011 | 75 | 305 | 1.7 | 7.8 | 0.00 | 0.00 | 0.00 | 60 | 1010.6 |
| 20260509184533 | 75 | 152 | 1.7 | 7.8 | 0.00 | 0.00 | 0.00 | 58 | 1010.6 |
| 20260509184014 | 75 | 140 | 1.7 | 5.2 | 0.00 | 0.00 | 0.00 | 60 | 1010.5 |
| 20260509183512 | 75 | 143 | 0.9 | 5.2 | 0.00 | 0.00 | 0.00 | 60 | 1010.6 |
| 20260509183059 | 74 | 267 | 0.9 | 7.0 | 0.00 | 0.00 | 0.00 | 61 | 1010.6 |
| 20260509182512 | 74 | 157 | 0.9 | 7.0 | 0.00 | 0.00 | 0.00 | 59 | 1010.8 |
| 20260509182010 | 75 | 105 | 2.6 | 7.0 | 0.00 | 0.00 | 0.00 | 58 | 1010.8 |
| 20260509181534 | 74 | 39 | 0.9 | 7.0 | 0.00 | 0.00 | 0.00 | 59 | 1011.0 |
| 20260509181011 | 74 | 182 | 0.9 | 7.0 | 0.00 | 0.00 | 0.00 | 58 | 1011.0 |
| 20260509180511 | 74 | 246 | 0.9 | 8.7 | 0.00 | 0.00 | 0.00 | 58 | 1011.3 |
| 20260509180029 | 74 | 246 | 1.7 | 8.7 | 0.00 | 0.00 | 0.00 | 57 | 1011.4 |
| 20260509175509 | 74 | 200 | 0.9 | 6.1 | 0.00 | 0.00 | 0.00 | 58 | 1011.4 |
| 20260509175011 | 73 | 183 | 0.0 | 4.3 | 0.00 | 0.00 | 0.00 | 60 | 1011.5 |
| 20260509174530 | 72 | 249 | 0.9 | 5.2 | 0.00 | 0.00 | 0.00 | 59 | 1011.5 |
| 20260509174011 | 72 | 258 | 0.9 | 5.2 | 0.00 | 0.00 | 0.00 | 59 | 1011.6 |
| 20260509173512 | 72 | 130 | 1.7 | 7.0 | 0.00 | 0.00 | 0.00 | 60 | 1011.6 |
| 20260509173029 | 72 | 221 | 1.7 | 7.8 | 0.00 | 0.00 | 0.00 | 61 | 1011.7 |
| 20260509172514 | 72 | 222 | 0.9 | 7.8 | 0.00 | 0.00 | 0.00 | 60 | 1011.7 |
| 20260509172009 | 72 | 121 | 1.7 | 7.8 | 0.00 | 0.00 | 0.00 | 60 | 1011.9 |
| 20260509171537 | 72 | 219 | 1.7 | 6.1 | 0.00 | 0.00 | 0.00 | 60 | 1011.7 |
| 20260509171011 | 72 | 275 | 1.7 | 6.1 | 0.00 | 0.00 | 0.00 | 60 | 1011.9 |
| 20260509170512 | 72 | 96 | 0.9 | 5.2 | 0.00 | 0.00 | 0.00 | 62 | 1011.9 |
| 20260509170032 | 72 | 185 | 0.9 | 7.0 | 0.00 | 0.00 | 0.00 | 63 | 1011.8 |
| 20260509165511 | 72 | 305 | 1.7 | 7.0 | 0.00 | 0.00 | 0.00 | 61 | 1012.0 |
| 20260509165008 | 72 | 96 | 0.9 | 7.0 | 0.00 | 0.00 | 0.00 | 63 | 1012.0 |
| 20260509164530 | 72 | 94 | 1.7 | 7.8 | 0.00 | 0.00 | 0.00 | 61 | 1011.8 |
| 20260509164014 | 72 | 157 | 1.7 | 7.8 | 0.00 | 0.00 | 0.00 | 62 | 1012.0 |
| 20260509163515 | 72 | 355 | 1.7 | 7.8 | 0.00 | 0.00 | 0.00 | 62 | 1012.1 |
| 20260509163028 | 72 | 266 | 2.6 | 7.8 | 0.00 | 0.00 | 0.00 | 62 | 1011.9 |